TimeEST,TemperatureF,Dew PointF,Humidity,Sea Level PressureIn,VisibilityMPH,Wind Direction,Wind SpeedMPH,Gust SpeedMPH,PrecipitationIn,Events,Conditions,WindDirDegrees,DateUTC
12:54 AM,30.9,18.0,59,29.95,9.0,West,13.8,24.2,0.00,Snow,Light Snow,260,2012-11-25 05:54:00
1:54 AM,30.9,18.0,59,29.94,10.0,WSW,13.8,-,0.00,,Overcast,250,2012-11-25 06:54:00
2:54 AM,30.9,19.0,61,29.95,10.0,West,13.8,20.7,N/A,,Overcast,260,2012-11-25 07:54:00
3:54 AM,30.9,19.0,61,29.94,9.0,West,12.7,18.4,0.00,Snow,Light Snow,260,2012-11-25 08:54:00
4:54 AM,30.9,18.0,59,29.94,10.0,West,15.0,-,0.00,,Overcast,270,2012-11-25 09:54:00
5:54 AM,30.9,19.0,61,29.94,10.0,West,15.0,19.6,N/A,,Overcast,270,2012-11-25 10:54:00
6:54 AM,30.9,19.0,61,29.92,10.0,West,12.7,-,N/A,,Overcast,280,2012-11-25 11:54:00
7:54 AM,30.9,19.0,61,29.91,10.0,West,6.9,-,N/A,,Overcast,280,2012-11-25 12:54:00
8:35 AM,32.0,19.4,60,29.88,10.0,West,6.9,-,N/A,,Overcast,260,2012-11-25 13:35:00
8:54 AM,32.0,19.9,61,29.90,10.0,West,10.4,-,N/A,,Overcast,270,2012-11-25 13:54:00
9:38 AM,30.2,21.2,69,29.88,5.0,West,11.5,19.6,0.00,Snow,Light Snow,260,2012-11-25 14:38:00
9:47 AM,30.2,21.2,69,29.88,1.8,West,17.3,21.9,0.00,Snow,Light Snow,260,2012-11-25 14:47:00
9:54 AM,30.0,23.0,75,29.91,1.8,WSW,12.7,21.9,0.00,Snow,Light Snow,250,2012-11-25 14:54:00
10:14 AM,28.4,24.8,86,29.88,0.5,WSW,9.2,-,0.00,Fog-Snow,Snow,240,2012-11-25 15:14:00
10:38 AM,28.4,26.6,93,29.87,0.8,WSW,6.9,-,0.01,Snow,Light Snow,240,2012-11-25 15:38:00
10:47 AM,28.4,26.6,93,29.87,1.0,WSW,8.1,-,0.01,Snow,Light Snow,250,2012-11-25 15:47:00
10:54 AM,28.9,26.1,89,29.89,1.0,WSW,8.1,-,0.01,Snow,Light Snow,240,2012-11-25 15:54:00
11:05 AM,28.4,26.6,93,29.86,0.8,SW,4.6,-,0.01,Snow,Light Snow,230,2012-11-25 16:05:00
11:15 AM,28.4,26.6,93,29.86,1.0,SW,5.8,-,0.01,Snow,Light Snow,230,2012-11-25 16:15:00
11:29 AM,30.2,26.6,86,29.86,1.2,WSW,5.8,-,0.01,Snow,Light Snow,240,2012-11-25 16:29:00
11:41 AM,28.4,26.6,93,29.85,1.0,WSW,6.9,-,0.02,Snow,Light Snow,250,2012-11-25 16:41:00
11:49 AM,28.4,26.6,93,29.85,0.8,SW,4.6,-,0.02,Snow,Light Snow,230,2012-11-25 16:49:00
11:54 AM,30.0,27.0,88,29.87,1.0,SW,5.8,-,0.02,Snow,Light Snow,230,2012-11-25 16:54:00
11:59 AM,30.2,26.6,86,29.84,0.8,SW,4.6,-,0.00,Snow,Light Snow,220,2012-11-25 16:59:00
12:08 PM,30.2,26.6,86,29.83,0.5,WSW,8.1,-,0.01,Snow,Snow,240,2012-11-25 17:08:00
12:17 PM,30.2,26.6,86,29.83,0.5,SW,8.1,-,0.01,Snow,Snow,230,2012-11-25 17:17:00
12:54 PM,30.0,28.0,92,29.85,0.5,WSW,4.6,-,0.03,Snow,Snow,250,2012-11-25 17:54:00
1:45 PM,30.2,28.4,93,29.81,1.2,SSW,6.9,-,0.03,Snow,Light Snow,200,2012-11-25 18:45:00
1:54 PM,30.0,28.0,92,29.83,1.5,SSW,5.8,-,0.03,Snow,Light Snow,210,2012-11-25 18:54:00
2:04 PM,30.2,28.4,93,29.80,0.5,SSW,6.9,-,0.00,Snow,Snow,200,2012-11-25 19:04:00
2:26 PM,30.2,28.4,93,29.80,0.8,SSW,5.8,-,0.01,Snow,Light Snow,210,2012-11-25 19:26:00
2:37 PM,30.2,28.4,93,29.80,1.5,SSW,5.8,-,0.02,Snow,Light Snow,210,2012-11-25 19:37:00
2:46 PM,30.2,28.4,93,29.80,2.0,SSW,4.6,-,0.02,Snow,Light Snow,210,2012-11-25 19:46:00
2:54 PM,30.0,28.9,96,29.83,2.5,SSW,5.8,-,0.02,Snow,Light Snow,200,2012-11-25 19:54:00
3:07 PM,30.2,28.4,93,29.79,3.0,South,8.1,-,0.00,Snow,Light Snow,190,2012-11-25 20:07:00
3:16 PM,30.2,28.4,93,29.80,1.8,SSW,8.1,-,0.00,Snow,Light Snow,200,2012-11-25 20:16:00
3:54 PM,30.0,28.9,96,29.83,1.2,SSW,8.1,-,0.01,Snow,Light Snow,200,2012-11-25 20:54:00
4:11 PM,30.2,28.4,93,29.80,0.5,SSW,5.8,-,0.01,Fog-Snow,Snow,210,2012-11-25 21:11:00
4:34 PM,30.2,28.4,93,29.81,1.5,SSW,6.9,-,0.02,Snow,Light Snow,210,2012-11-25 21:34:00
4:38 PM,30.2,28.4,93,29.81,2.0,SSW,5.8,-,0.02,Snow,Light Snow,210,2012-11-25 21:38:00
4:49 PM,30.2,28.4,93,29.81,3.0,SSW,8.1,-,0.02,Snow,Light Snow,210,2012-11-25 21:49:00
4:54 PM,30.9,28.9,92,29.83,4.0,SSW,8.1,-,0.03,Snow,Light Snow,210,2012-11-25 21:54:00
5:54 PM,30.9,25.0,79,29.86,9.0,West,11.5,-,0.00,Snow,Light Snow,260,2012-11-25 22:54:00
6:10 PM,32.0,24.8,75,29.83,9.0,West,6.9,-,0.00,,Overcast,270,2012-11-25 23:10:00
6:54 PM,30.9,25.0,79,29.87,10.0,West,6.9,-,0.00,,Overcast,260,2012-11-25 23:54:00
7:54 PM,30.9,26.1,82,29.87,10.0,West,6.9,-,0.00,,Overcast,260,2012-11-26 00:54:00
8:54 PM,32.0,26.1,79,29.88,10.0,West,10.4,-,N/A,,Overcast,260,2012-11-26 01:54:00
9:54 PM,33.1,25.0,72,29.88,10.0,West,13.8,-,N/A,,Overcast,280,2012-11-26 02:54:00
10:54 PM,33.1,25.0,72,29.89,10.0,West,13.8,-,N/A,,Overcast,270,2012-11-26 03:54:00
11:54 PM,33.1,26.1,75,29.90,8.0,WSW,13.8,-,N/A,,Overcast,250,2012-11-26 04:54:00